Bryce Canyon, UT

6:45 AM MST on December 15, 2019 (GMT -0700)
Bryce Canyon

Weather History for KBCE - August, 2019

Change the Weather History Date:

Monday, August 26, 2019

  Actual Average Record
Temperature  
Mean Temperature 66 °F -  
Max Temperature 84 °F 74 °F 84 °F (2001)
Min Temperature 48 °F 43 °F 30 °F (1978)
Cooling Degree Days 1    
Growing Degree Days 16 (Base 50)    
Moisture  
Dew Point 34 °F    
Average Humidity 32    
Maximum Humidity 64    
Minimum Humidity 14    
Precipitation  
Precipitation 0.00 in - - ()
Sea Level Pressure  
Sea Level Pressure 29.91 in    
Wind  
Wind Speed 11 mph (WNW)    
Max Wind Speed 20 mph    
Max Gust Speed 25 mph    
Visibility 10 miles    
Events      
Averages and records for this station are not official NWS values.
T = Trace of Precipitation, MM = Missing Value Source: NWS Daily Summary

Daily Weather History Graph

Daily Weather History Graph

Search for Another Location

Airport or City:

Astronomy

Aug. 26, 2019 Rise Set
Actual Time 6:53 AM MDT 8:06 PM MDT
Civil Twilight 6:26 AM MDT 8:33 PM MDT
Nautical Twilight 5:53 AM MDT 9:06 PM MDT
Astronomical Twilight 5:19 AM MDT 9:39 PM MDT
Moon 2:26 AM MDT (8/26) 5:29 PM MDT (8/26)
Length of Visible Light 14h 07m
Length of Day
13h 13m
Waning Crescent, 19% of the Moon is Illuminated
Aug 26
Waning Crescent
Aug 30
New
Sep 5
First Quarter
Sep 13
Full
Sep 21
Last Quarter

Hourly Weather History & Observations

Time (MDT) Temp. Dew Point Humidity Pressure Visibility Wind Dir Wind Speed Gust Speed Precip Events Conditions
12:53 AM 59.0 °F 37.9 °F 46% 29.89 in 10.0 mi West 13.8 mph - N/A   Clear
1:53 AM 55.0 °F 37.9 °F 53% 29.90 in 10.0 mi West 12.7 mph - N/A   Clear
2:53 AM 64.9 °F 37.9 °F 37% 29.84 in 10.0 mi NW 11.5 mph - N/A   Clear
3:53 AM 54.0 °F 37.0 °F 53% 29.88 in 10.0 mi West 10.4 mph - N/A   Clear
4:53 AM 52.0 °F 37.0 °F 57% 29.89 in 10.0 mi West 10.4 mph - N/A   Clear
5:53 AM 50.0 °F 37.0 °F 61% 29.90 in 9.0 mi West 12.7 mph - N/A   Clear
6:53 AM 48.9 °F 37.0 °F 64% 29.93 in 5.0 mi West 9.2 mph - N/A   Haze
7:53 AM 55.0 °F 39.0 °F 55% 29.95 in 6.0 mi West 5.8 mph - N/A   Haze
8:53 AM 69.1 °F 42.1 °F 38% 29.92 in 10.0 mi North 3.5 mph - N/A   Clear
9:53 AM 72.0 °F 37.9 °F 29% 29.94 in 10.0 mi NE 12.7 mph - N/A   Clear
10:53 AM 75.0 °F 37.9 °F 26% 29.94 in 10.0 mi East 6.9 mph - N/A   Clear
11:53 AM 79.0 °F 35.1 °F 20% 29.93 in 10.0 mi WNW 6.9 mph 18.4 mph N/A   Clear
12:53 PM 80.1 °F 35.1 °F 20% 29.92 in 10.0 mi West 11.5 mph - N/A   Clear
1:53 PM 82.9 °F 34.0 °F 17% 29.91 in 10.0 mi WNW 13.8 mph 18.4 mph N/A   Clear
2:53 PM 82.9 °F 33.1 °F 17% 29.86 in 10.0 mi NW 8.1 mph 20.7 mph N/A   Clear
3:53 PM 84.0 °F 32.0 °F 15% 29.88 in 10.0 mi NW 19.6 mph 25.3 mph N/A   Clear
4:53 PM 82.9 °F 32.0 °F 16% 29.88 in 10.0 mi NW 11.5 mph 21.9 mph N/A   Clear
5:53 PM 82.0 °F 28.9 °F 14% 29.90 in 10.0 mi NW 19.6 mph 25.3 mph N/A   Clear
6:53 PM 79.0 °F 27.0 °F 15% 29.92 in 10.0 mi NW 15.0 mph 21.9 mph N/A   Clear
7:53 PM 73.9 °F 26.1 °F 17% 29.91 in 10.0 mi NW 8.1 mph - N/A   Clear
8:53 PM 69.1 °F 27.0 °F 21% 29.90 in 10.0 mi North 10.4 mph - N/A   Clear
9:53 PM 61.0 °F 27.0 °F 27% 29.94 in 10.0 mi NNW 6.9 mph - N/A   Clear
10:53 PM 59.0 °F 24.1 °F 26% 29.93 in 10.0 mi ENE 9.2 mph - N/A   Clear
11:53 PM 52.0 °F 25.0 °F 35% 29.95 in 10.0 mi SW 3.5 mph - N/A   Clear